[[{"header":{"parameterUnit":"m.s-1","parameterCategory":2,"la1":30.2991,"la2":30.254,"lo1":-89.0895,"lo2":-89.0444,"dy":0.0017,"dx":0.0017,"nx":28,"ny":28,"refTime":"2025-12-02T03:00:00:Z","depth":"0","parameterNumber":2,"parameterNumberName":"U-component_of_CURRENTS"},"data":[0,0,0,0,0,0,0,0,0,0,0,0,0,0,0,0,0,0,0,0,0,0,0,0,0,0,0,0,0,0,0,0,0,0,0,0,0,0,0,0,0,0,0,0,0,0,0,0,0,0,0,0,0,0,0,0,0,0,0.3308,0.3309,0,0.3333,0.3333,0.3333,0.3337,0.3337,0.3337,0.3336,0.334,0.334,0.334,0,0,0,0,0,0,0,0,0,0,0,0,0,0.3287,0.3287,0.3308,0.3309,0.3309,0.3333,0.3333,0.3333,0.3337,0.3337,0.3337,0.3336,0.334,0.334,0.334,0,0,0,0,0,0,0,0,0,0,0,0,0,0.33,0.3287,0.3308,0.3315,0.3316,0.3333,0.3333,0.3333,0.3337,0.3337,0.3336,0.3336,0.334,0.334,0.334,0.3342,0,0,0.3341,0.3341,0,0,0,0,0,0,0,0,0.3299,0.3301,0.3314,0.3315,0.3316,0.3333,0.3327,0.3336,0.3337,0.3327,0.3336,0.3336,0.3337,0.3338,0.334,0.3342,0.3342,0.3341,0.3341,0.3341,0.3341,0,0,0,0,0,0,0,0.3298,0.33,0.3316,0.3314,0.3316,0.3325,0.3327,0.3329,0.333,0.3327,0.3328,0.3335,0.3337,0.3339,0.334,0.3343,0.3341,0.3341,0.3341,0.3341,0.3399,0.3401,0,0,0,0,0,0,0.3298,0.3299,0.3315,0.3317,0.331,0.3326,0.3327,0.3326,0.333,0.3332,0.3335,0.3335,0.3339,0.3339,0.334,0.3377,0.3341,0.3341,0.3341,0.3398,0.34,0.3401,0,0,0,0,0,0,0.3298,0.3299,0.3314,0.331,0.3313,0.3326,0.3325,0.3327,0.3334,0.3336,0.3337,0.3341,0.3339,0.334,0.3357,0.3376,0.3341,0.3341,0.3396,0.3399,0.3401,0.3429,0,0,0,0,0,0,0.3297,0.3299,0.3299,0.331,0.3313,0.3328,0.3325,0.3327,0.3338,0.3339,0.3342,0.3342,0.3339,0.3357,0.3357,0.3375,0.3341,0.3394,0.3397,0.34,0.3426,0.3432,0.3437,0,0,0,0,0,0.3296,0.3282,0.3298,0.3301,0.3313,0.3328,0.3331,0.3339,0.3339,0.3344,0.3354,0.3342,0.3374,0.3358,0.3358,0.3377,0.3393,0.3397,0.34,0.3424,0.3431,0.3437,0,0,0,0,0,0,0.326,0.3282,0.33,0.3291,0.3317,0.333,0.3329,0.3342,0.3353,0.3353,0.3354,0.3356,0.3383,0.3378,0.3359,0.3405,0.3384,0.3388,0.3403,0.3409,0.3414,0.3423,0.3342,0,0,0,0,0,0.3259,0.3259,0.329,0.3284,0.3296,0.3318,0.3326,0.3338,0.335,0.3355,0.3361,0.3373,0.3396,0.34,0.3414,0.3429,0.3448,0.3445,0.3451,0.3455,0.3465,0.3515,0.3526,0.3412,0.3412,0.3412,0,0,0.3238,0.3255,0.3252,0.3279,0.3294,0.3318,0.3321,0.3334,0.3359,0.3353,0.3377,0.3391,0.3407,0.3434,0.3445,0.3429,0.3499,0.3459,0.3462,0.347,0.352,0.3531,0.3541,0.3414,0.3414,0.3413,0,0,0.3209,0.3221,0.3221,0.325,0.3287,0.3309,0.3317,0.3343,0.3359,0.3389,0.3402,0.3431,0.3445,0.3471,0.3484,0.3527,0.353,0.3529,0.3554,0.3603,0.3613,0.3621,0.3664,0.3676,0.3525,0.3525,0.3525,0,0.3186,0.3203,0.3223,0.3246,0.3274,0.3308,0.3333,0.3356,0.3387,0.3412,0.3399,0.3465,0.3469,0.3527,0.3541,0.3539,0.3564,0.3525,0.361,0.3619,0.3627,0.3668,0.3681,0.3527,0.3527,0.3526,0.3526,0,0.3173,0.3198,0.3199,0.3249,0.3278,0.3301,0.3351,0.3382,0.3406,0.3438,0.3497,0.3513,0.3555,0.3562,0.356,0.3628,0.3627,0.3614,0.359,0.364,0.368,0.3693,0.3529,0.3529,0.3528,0.3528,0,0,0.3092,0.3175,0.3178,0.3216,0.3289,0.3306,0.3364,0.343,0.3472,0.3506,0.3563,0.3603,0.362,0.3638,0.3648,0.3681,0.3756,0.3669,0.3671,0.3706,0.3866,0.3872,0.3886,0.3756,0.3759,0.3761,0.3871,0,0.3083,0.3128,0.3179,0.3231,0.3262,0.3334,0.3382,0.3447,0.3503,0.3563,0.3609,0.3659,0.3649,0.367,0.3709,0.3753,0.3792,0.3727,0.3817,0.382,0.3815,0.3902,0.3793,0.3883,0.3884,0.3886,0.3887,0,0.3059,0.31,0.3146,0.3242,0.3261,0.3296,0.3396,0.3447,0.3553,0.3598,0.3672,0.3712,0.3791,0.3757,0.3869,0.383,0.3853,0.3874,0.3878,0.3884,0.3851,0.3834,0.3907,0.3823,0.3907,0.3906,0.3904,0,0.2993,0.3078,0.3117,0.3148,0.3253,0.3287,0.3343,0.3449,0.3523,0.3623,0.3695,0.3779,0.3845,0.389,0.3957,0.3915,0.4073,0.4019,0.4049,0.4048,0.3975,0.3965,0.3972,0.4093,0.4092,0.4092,0.4092,0,0.2966,0.2995,0.3085,0.3104,0.3156,0.3237,0.3309,0.3385,0.3518,0.3602,0.3702,0.3797,0.3883,0.3989,0.4002,0.4096,0.4121,0.4083,0.4091,0.3983,0.3973,0.391,0.3862,0.4096,0.4095,0.4094,0.4094,0,0.2887,0.295,0.2997,0.3094,0.3126,0.3154,0.3298,0.3355,0.349,0.3611,0.3653,0.3853,0.3986,0.4079,0.4177,0.4178,0.4137,0.4251,0.4123,0.4114,0.403,0.3988,0.389,0.376,0.4292,0.4293,0.4294,0,0.2852,0.2866,0.2964,0.2989,0.3031,0.3099,0.3151,0.3309,0.339,0.3634,0.3689,0.3896,0.4022,0.422,0.4262,0.4332,0.4182,0.4247,0.4142,0.4044,0.4002,0.3837,0.3719,0.4054,0.4053,0.4052,0.4051,0,0.2782,0.2815,0.2853,0.2907,0.2955,0.3018,0.311,0.3188,0.3366,0.3502,0.3684,0.3819,0.4066,0.4132,0.4269,0.428,0.4062,0.4229,0.4156,0.3858,0.3648,0.3519,0.3962,0.4043,0.4044,0.4044,0.4045,0.4045,0.2717,0.2723,0.2771,0.2812,0.2867,0.2907,0.2919,0.3049,0.3175,0.3337,0.3557,0.3708,0.3944,0.4148,0.4145,0.4104,0.4029,0.3981,0.3953,0.3806,0.3627,0.4063,0.4133,0.4135,0.4136,0.4137,0.4138,0,0.2617,0.2638,0.2676,0.2713,0.2716,0.2783,0.2863,0.2862,0.2943,0.3156,0.3311,0.3564,0.3708,0.386,0.3965,0.385,0.3644,0.3739,0.3466,0.3371,0.3804,0.3742,0.3694,0.3694,0.3694,0.3694,0.3694,0.3694,0.2566,0.255,0.2573,0.2543,0.2563,0.252,0.2525,0.2566,0.2684,0.2831,0.2976,0.317,0.3556,0.3812,0.3773,0.3674,0.3357,0.3245,0.3183,0.3502,0.352,0.3537,0.3468,0.3362,0.3362,0.2608,0.2602,0.2598]},{"header":{"parameterUnit":"m.s-1","parameterCategory":2,"la1":30.2991,"la2":30.254,"lo1":-89.0895,"lo2":-89.0444,"dy":0.0017,"dx":0.0017,"nx":28,"ny":28,"refTime":"2025-12-02T03:00:00:Z","depth":"0","parameterNumber":3,"parameterNumberName":"V-component_of_CURRENTS"},"data":[0,0,0,0,0,0,0,0,0,0,0,0,0,0,0,0,0,0,0,0,0,0,0,0,0,0,0,0,0,0,0,0,0,0,0,0,0,0,0,0,0,0,0,0,0,0,0,0,0,0,0,0,0,0,0,0,0,0,-0.0245,-0.0245,0,-0.0319,-0.032,-0.0321,-0.0379,-0.0379,-0.0379,-0.038,-0.0472,-0.0474,-0.0476,0,0,0,0,0,0,0,0,0,0,0,0,0,-0.0245,-0.0245,-0.0244,-0.0245,-0.0246,-0.0319,-0.032,-0.0321,-0.0379,-0.0379,-0.0379,-0.038,-0.0471,-0.0474,-0.0477,0,0,0,0,0,0,0,0,0,0,0,0,0,-0.0276,-0.0244,-0.0244,-0.0282,-0.0286,-0.0318,-0.032,-0.0321,-0.0378,-0.0379,-0.038,-0.038,-0.0471,-0.0474,-0.0477,-0.0485,0,0,-0.0487,-0.0488,0,0,0,0,0,0,0,0,-0.0274,-0.0276,-0.0276,-0.0279,-0.0284,-0.0338,-0.0354,-0.0376,-0.0378,-0.0345,-0.038,-0.038,-0.0427,-0.0434,-0.0449,-0.0489,-0.0493,-0.0487,-0.0489,-0.049,-0.0491,0,0,0,0,0,0,0,-0.0272,-0.0274,-0.0276,-0.0276,-0.0281,-0.0327,-0.0331,-0.0359,-0.0384,-0.0348,-0.0352,-0.0357,-0.043,-0.0446,-0.0452,-0.0495,-0.0487,-0.049,-0.0491,-0.0493,-0.0544,-0.0544,0,0,0,0,0,0,-0.0253,-0.0271,-0.0273,-0.0278,-0.0278,-0.0326,-0.0331,-0.0322,-0.0384,-0.0393,-0.0357,-0.036,-0.044,-0.0448,-0.0455,-0.0449,-0.049,-0.0493,-0.0495,-0.0545,-0.0544,-0.0543,0,0,0,0,0,0,-0.0253,-0.0252,-0.027,-0.0276,-0.0281,-0.0324,-0.0314,-0.0323,-0.0335,-0.0389,-0.04,-0.0359,-0.0441,-0.0451,-0.0473,-0.0454,-0.0494,-0.0497,-0.0545,-0.0545,-0.0544,-0.0449,0,0,0,0,0,0,-0.0252,-0.0251,-0.0238,-0.0274,-0.028,-0.0274,-0.0314,-0.0324,-0.0337,-0.0341,-0.0395,-0.0404,-0.0442,-0.0467,-0.0476,-0.0459,-0.05,-0.0546,-0.0545,-0.0544,-0.0453,-0.0445,-0.0439,0,0,0,0,0,-0.0252,-0.0219,-0.0237,-0.0237,-0.026,-0.0273,-0.028,-0.0316,-0.0336,-0.0331,-0.0371,-0.0402,-0.0467,-0.0469,-0.0479,-0.0463,-0.0546,-0.0545,-0.0544,-0.0456,-0.0447,-0.0439,0,0,0,0,0,0,-0.0203,-0.0223,-0.0243,-0.0216,-0.024,-0.0282,-0.0278,-0.0306,-0.0335,-0.034,-0.0395,-0.0407,-0.042,-0.0455,-0.0456,-0.0476,-0.0512,-0.0513,-0.0442,-0.0434,-0.0427,-0.0406,-0.0502,0,0,0,0,0,-0.0188,-0.0176,-0.0206,-0.0186,-0.0193,-0.0236,-0.0247,-0.027,-0.0301,-0.0315,-0.0354,-0.0394,-0.0424,-0.0438,-0.0471,-0.0479,-0.0515,-0.0476,-0.0469,-0.0462,-0.0453,-0.0496,-0.0491,-0.054,-0.054,-0.054,0,0,-0.0162,-0.0174,-0.0166,-0.0177,-0.0199,-0.0193,-0.0244,-0.0248,-0.0246,-0.0319,-0.0326,-0.037,-0.0421,-0.0432,-0.0441,-0.0457,-0.0467,-0.0461,-0.0455,-0.0449,-0.0494,-0.0489,-0.0485,-0.0539,-0.0539,-0.0539,0,0,-0.0108,-0.0116,-0.0092,-0.0105,-0.013,-0.0154,-0.015,-0.0188,-0.0206,-0.0222,-0.0273,-0.0303,-0.035,-0.038,-0.0403,-0.0375,-0.0429,-0.0387,-0.0331,-0.0372,-0.0369,-0.0366,-0.0397,-0.0398,-0.0382,-0.0381,-0.0381,0,-0.0078,-0.0052,-0.0087,-0.0072,-0.007,-0.0129,-0.0103,-0.0129,-0.017,-0.0178,-0.021,-0.028,-0.0324,-0.0337,-0.0331,-0.0357,-0.0389,-0.0357,-0.0362,-0.036,-0.0359,-0.0392,-0.0394,-0.0377,-0.0377,-0.0378,-0.0378,0,-0.0014,0.0005,0.0021,0.002,0.0017,0.0031,-0.0006,-0.0016,-0.0051,-0.0084,-0.0111,-0.018,-0.0219,-0.024,-0.0278,-0.0285,-0.0313,-0.0348,-0.0379,-0.0348,-0.0385,-0.0389,-0.037,-0.0372,-0.0373,-0.0374,0,0,0.0059,0.0065,0.007,0.0087,0.0068,0.0077,0.0082,0.0072,0.0081,0.0019,0.0023,-0.0045,-0.0092,-0.0121,-0.0177,-0.0217,-0.0237,-0.027,-0.0275,-0.0293,-0.0321,-0.0334,-0.034,-0.0274,-0.0275,-0.0275,-0.0347,0,0.0118,0.0173,0.0156,0.021,0.0239,0.0195,0.0209,0.0189,0.0154,0.014,0.0057,0.0035,-0.0043,-0.006,-0.0112,-0.0205,-0.0244,-0.0214,-0.0357,-0.0361,-0.0369,-0.0344,-0.0322,-0.0384,-0.0351,-0.0352,-0.0352,0,0.0188,0.0214,0.0278,0.031,0.0319,0.0336,0.035,0.0352,0.0309,0.0279,0.023,0.0165,0.0103,0.0027,-0.0113,-0.0091,-0.0192,-0.0274,-0.0279,-0.0326,-0.038,-0.0413,-0.0392,-0.059,-0.0359,-0.0358,-0.0358,0,0.0259,0.0305,0.0361,0.0371,0.0391,0.0409,0.0413,0.0393,0.0418,0.0365,0.0375,0.0272,0.0236,0.0091,-0.0074,-0.0094,-0.0233,-0.0285,-0.0392,-0.0394,-0.0421,-0.0424,-0.0599,-0.0382,-0.0382,-0.0382,-0.0382,0,0.0333,0.0379,0.0397,0.0427,0.0501,0.048,0.0544,0.0525,0.0526,0.057,0.0452,0.0469,0.025,0.0147,-0.0029,-0.0211,-0.0201,-0.0373,-0.0411,-0.0386,-0.0386,-0.0597,-0.0722,-0.0385,-0.0384,-0.0383,-0.0383,0,0.0403,0.0411,0.0481,0.0515,0.0535,0.0582,0.0642,0.0688,0.0664,0.0718,0.0713,0.0625,0.0488,0.0269,0.0041,-0.0131,-0.0436,-0.0389,-0.0338,-0.037,-0.0657,-0.0777,-0.1015,-0.1093,-0.0519,-0.0519,-0.052,0,0.0443,0.0485,0.0554,0.0604,0.0621,0.0689,0.0745,0.0753,0.0815,0.0826,0.0872,0.0765,0.0725,0.0386,0.0059,-0.0244,-0.045,-0.0437,-0.0478,-0.0662,-0.0825,-0.0924,-0.0979,-0.0477,-0.0477,-0.0477,-0.0477,0,0.0521,0.0539,0.0596,0.0702,0.0771,0.0862,0.0941,0.1021,0.104,0.1093,0.1148,0.112,0.0802,0.0525,0.0096,-0.014,-0.0582,-0.045,-0.0661,-0.0819,-0.092,-0.1015,-0.044,-0.0479,-0.0478,-0.0478,-0.0478,-0.0478,0.0578,0.0633,0.0708,0.0814,0.09,0.1019,0.1114,0.1216,0.1337,0.1435,0.1385,0.1389,0.0952,0.0385,0.0035,-0.0585,-0.0606,-0.0765,-0.0896,-0.098,-0.1057,-0.0476,-0.0548,-0.0548,-0.0548,-0.0548,-0.0549,0,0.0653,0.0716,0.0818,0.094,0.1052,0.108,0.1241,0.1346,0.151,0.1614,0.1673,0.1479,0.0938,0.0353,-0.0472,-0.0926,-0.1106,-0.1193,-0.1338,-0.1372,-0.0867,-0.0864,-0.0983,-0.0982,-0.0982,-0.0982,-0.0982,-0.0982,0.069,0.0801,0.0854,0.1048,0.114,0.1298,0.1397,0.1553,0.1675,0.1815,0.1844,0.1831,0.1379,-0.011,-0.1132,-0.1384,-0.1711,-0.1804,-0.1958,-0.1629,-0.1599,-0.157,-0.1596,-0.1867,-0.1868,-0.2383,-0.2388,-0.2392]}],[{"header":{"parameterUnit":"m.s-1","parameterCategory":2,"la1":30.2991,"la2":30.254,"lo1":-89.0895,"lo2":-89.0444,"dy":0.0017,"dx":0.0017,"nx":28,"ny":28,"refTime":"2025-12-02T03:00:00:Z","depth":"2","parameterNumber":2,"parameterNumberName":"U-component_of_CURRENTS"},"data":[0,0,0,0,0,0,0,0,0,0,0,0,0,0,0,0,0,0,0,0,0,0,0,0,0,0,0,0,0,0,0,0,0,0,0,0,0,0,0,0,0,0,0,0,0,0,0,0,0,0,0,0,0,0,0,0,0,0,0.2942,0.2943,0,0.2995,0.2996,0.2996,0.3013,0.3013,0.3013,0.3013,0.3035,0.3036,0.3036,0,0,0,0,0,0,0,0,0,0,0,0,0,0.2852,0.2853,0.2942,0.2943,0.2944,0.2995,0.2996,0.2996,0.3013,0.3013,0.3013,0.3013,0.3035,0.3036,0.3036,0,0,0,0,0,0,0,0,0,0,0,0,0,0.2894,0.2854,0.2942,0.296,0.2963,0.2995,0.2996,0.2996,0.3013,0.3013,0.3013,0.3013,0.3035,0.3035,0.3036,0.3041,0,0,0.3039,0.3039,0,0,0,0,0,0,0,0,0.2891,0.2897,0.2957,0.2959,0.2962,0.3,0.2972,0.3011,0.3013,0.2991,0.3013,0.3013,0.3022,0.3024,0.303,0.3042,0.3043,0.3039,0.304,0.304,0.304,0,0,0,0,0,0,0,0.2888,0.2895,0.296,0.2958,0.2961,0.2966,0.2971,0.298,0.3003,0.2993,0.2995,0.3005,0.3023,0.303,0.3031,0.3043,0.3039,0.304,0.304,0.3041,0.312,0.3121,0,0,0,0,0,0,0.2888,0.2892,0.2958,0.2962,0.2929,0.2967,0.2974,0.2985,0.3004,0.3007,0.3005,0.3006,0.3028,0.303,0.3032,0.3084,0.304,0.3041,0.3041,0.3118,0.312,0.3122,0,0,0,0,0,0,0.2886,0.2894,0.2956,0.293,0.2939,0.2969,0.2982,0.2987,0.3005,0.3014,0.3017,0.3021,0.3028,0.3031,0.3058,0.3083,0.3041,0.3042,0.3116,0.3119,0.3121,0.3159,0,0,0,0,0,0,0.2883,0.2893,0.2904,0.293,0.2941,0.2984,0.2983,0.2988,0.3012,0.3014,0.3028,0.303,0.3028,0.3057,0.3059,0.3083,0.3043,0.3114,0.3118,0.312,0.3155,0.3162,0.3168,0,0,0,0,0,0.288,0.289,0.2904,0.2913,0.2954,0.2985,0.2991,0.301,0.3013,0.3025,0.3041,0.303,0.3078,0.3059,0.3061,0.3086,0.3113,0.3117,0.312,0.3153,0.3161,0.3168,0,0,0,0,0,0,0.2854,0.2894,0.291,0.2932,0.2963,0.299,0.3004,0.3018,0.3039,0.3043,0.3046,0.3049,0.3086,0.3083,0.3062,0.312,0.3095,0.3099,0.3119,0.3127,0.3133,0.3139,0.3043,0,0,0,0,0,0.2856,0.2876,0.2915,0.2934,0.2952,0.2981,0.2997,0.3014,0.3036,0.3046,0.3058,0.3076,0.3101,0.311,0.3129,0.3153,0.3167,0.3174,0.318,0.3185,0.3194,0.324,0.3251,0.3134,0.3134,0.3134,0,0,0.2848,0.2877,0.2886,0.2931,0.2955,0.2986,0.299,0.3022,0.3049,0.3045,0.3081,0.3098,0.3115,0.315,0.3166,0.3149,0.3228,0.319,0.3194,0.32,0.3245,0.3256,0.3266,0.3136,0.3136,0.3135,0,0,0.2844,0.2874,0.289,0.2921,0.2969,0.2993,0.3006,0.3043,0.3064,0.3101,0.3114,0.3148,0.3173,0.3197,0.3211,0.3262,0.3262,0.3268,0.3298,0.3343,0.3353,0.3362,0.3398,0.341,0.3266,0.3266,0.3266,0,0.2832,0.2868,0.2899,0.2929,0.2961,0.2998,0.3029,0.3057,0.3099,0.3126,0.3118,0.3191,0.3198,0.3258,0.3276,0.3276,0.3299,0.3265,0.3351,0.336,0.3368,0.3403,0.3416,0.3268,0.3268,0.3268,0.3268,0,0.2843,0.288,0.2894,0.2949,0.2983,0.3018,0.3067,0.3104,0.3133,0.3163,0.3229,0.3249,0.3294,0.3303,0.3302,0.3373,0.3369,0.3356,0.3329,0.3382,0.3416,0.3428,0.3272,0.3271,0.327,0.327,0,0,0.2795,0.2884,0.289,0.2925,0.3002,0.3026,0.3089,0.3155,0.3198,0.324,0.3298,0.3346,0.3364,0.3383,0.3394,0.3427,0.3501,0.3417,0.3418,0.3447,0.3603,0.3582,0.3593,0.3503,0.3506,0.3507,0.3604,0,0.2798,0.2853,0.2904,0.2962,0.2997,0.3065,0.3115,0.318,0.3237,0.3299,0.3347,0.3401,0.3393,0.3419,0.3457,0.3498,0.3535,0.3476,0.3552,0.3555,0.3525,0.3608,0.3335,0.3397,0.3616,0.3618,0.3619,0,0.2792,0.2836,0.2889,0.298,0.3001,0.3038,0.3137,0.319,0.3293,0.334,0.3415,0.3455,0.3535,0.3505,0.361,0.3575,0.3596,0.3614,0.3618,0.3594,0.3557,0.3379,0.3411,0.364,0.3638,0.3637,0.3635,0,0.2737,0.2825,0.2868,0.2898,0.2999,0.3038,0.3094,0.3196,0.3268,0.3371,0.3441,0.3524,0.359,0.3632,0.3692,0.3657,0.3798,0.3748,0.375,0.3748,0.3529,0.3504,0.3816,0.3816,0.3816,0.3816,0.3815,0,0.2719,0.2751,0.2842,0.2862,0.2918,0.2997,0.3072,0.3146,0.3275,0.3355,0.3455,0.3541,0.3628,0.3722,0.3734,0.3804,0.3841,0.3781,0.3783,0.3536,0.3512,0.3725,0.3713,0.3819,0.3818,0.3818,0.3817,0,0.2649,0.2712,0.2762,0.2859,0.2893,0.2925,0.3066,0.3122,0.3254,0.337,0.3413,0.3595,0.3711,0.3798,0.3885,0.3875,0.3919,0.3925,0.3635,0.3602,0.3821,0.381,0.393,0.3931,0.3931,0.3931,0.3931,0,0.2619,0.2637,0.2736,0.2762,0.2806,0.2878,0.2931,0.3084,0.3159,0.3387,0.3437,0.3624,0.3719,0.3883,0.3898,0.3946,0.3967,0.3702,0.3581,0.3849,0.3839,0.3827,0.3816,0.33,0.3295,0.3291,0.3288,0,0.2557,0.2592,0.263,0.2688,0.2739,0.2801,0.2893,0.2961,0.3131,0.3252,0.3405,0.3511,0.3705,0.3655,0.3759,0.3734,0.3672,0.3623,0.3986,0.3327,0.3266,0.3253,0.326,0.3251,0.3255,0.3258,0.326,0.3261,0.25,0.2507,0.2557,0.2601,0.2657,0.2692,0.2702,0.2819,0.2926,0.3057,0.3245,0.331,0.341,0.3439,0.3375,0.3335,0.3569,0.3388,0.3395,0.3408,0.3331,0.3276,0.3248,0.3251,0.3254,0.3257,0.3259,0,0.241,0.2431,0.2469,0.2506,0.2511,0.2582,0.2649,0.2636,0.2691,0.2846,0.2957,0.2822,0.2853,0.2934,0.2844,0.2891,0.2805,0.2755,0.2595,0.2638,0.2675,0.2553,0.2267,0.2263,0.2259,0.2256,0,0,0.2364,0.235,0.2368,0.234,0.2365,0.2327,0.2328,0.2341,0.2413,0.2427,0.2454,0.2706,0.2859,0.2502,0.2503,0.2353,0.2453,0.227,0.3082,0.2936,0.2966,0.308,0.2949,0,0,0,0,0]},{"header":{"parameterUnit":"m.s-1","parameterCategory":2,"la1":30.2991,"la2":30.254,"lo1":-89.0895,"lo2":-89.0444,"dy":0.0017,"dx":0.0017,"nx":28,"ny":28,"refTime":"2025-12-02T03:00:00:Z","depth":"2","parameterNumber":3,"parameterNumberName":"V-component_of_CURRENTS"},"data":[0,0,0,0,0,0,0,0,0,0,0,0,0,0,0,0,0,0,0,0,0,0,0,0,0,0,0,0,0,0,0,0,0,0,0,0,0,0,0,0,0,0,0,0,0,0,0,0,0,0,0,0,0,0,0,0,0,0,0.0006,0.0005,0,-0.009,-0.0091,-0.0092,-0.0151,-0.0151,-0.0151,-0.0152,-0.0242,-0.0244,-0.0247,0,0,0,0,0,0,0,0,0,0,0,0,0,0.0089,0.0088,0.0006,0.0004,0.0003,-0.009,-0.0091,-0.0092,-0.0151,-0.0151,-0.0151,-0.0152,-0.0242,-0.0244,-0.0247,0,0,0,0,0,0,0,0,0,0,0,0,0,0.0029,0.0088,0.0006,-0.0037,-0.0042,-0.0089,-0.0091,-0.0093,-0.0151,-0.0151,-0.0151,-0.0152,-0.0241,-0.0244,-0.0247,-0.0258,0,0,-0.0257,-0.0258,0,0,0,0,0,0,0,0,0.0033,0.0026,-0.003,-0.0034,-0.004,-0.0109,-0.0095,-0.0148,-0.015,-0.0109,-0.0152,-0.0152,-0.0197,-0.0204,-0.0221,-0.0262,-0.0266,-0.0257,-0.0259,-0.026,-0.0261,0,0,0,0,0,0,0,0.0037,0.003,-0.0032,-0.0031,-0.0037,-0.0068,-0.0077,-0.0106,-0.0149,-0.0113,-0.0117,-0.0128,-0.02,-0.0217,-0.0223,-0.0267,-0.0257,-0.026,-0.0262,-0.0263,-0.0321,-0.0321,0,0,0,0,0,0,0.0052,0.0034,-0.0029,-0.0035,-0.0004,-0.0069,-0.0079,-0.0086,-0.0149,-0.0159,-0.0127,-0.013,-0.0212,-0.0219,-0.0227,-0.0227,-0.026,-0.0263,-0.0265,-0.0322,-0.0321,-0.0321,0,0,0,0,0,0,0.0054,0.0047,-0.0025,-0.0003,-0.0014,-0.007,-0.0078,-0.0088,-0.0105,-0.016,-0.017,-0.0135,-0.0213,-0.0222,-0.0246,-0.0232,-0.0265,-0.0268,-0.0322,-0.0322,-0.0321,-0.0238,0,0,0,0,0,0,0.0057,0.0049,0.0049,-0.0002,-0.0015,-0.0043,-0.0078,-0.0089,-0.0111,-0.0116,-0.017,-0.0179,-0.0214,-0.0241,-0.0249,-0.0237,-0.027,-0.0323,-0.0322,-0.0321,-0.0241,-0.0235,-0.0229,0,0,0,0,0,0.006,0.0066,0.0049,0.0041,-0.0013,-0.0042,-0.0051,-0.0093,-0.0111,-0.0112,-0.0148,-0.0177,-0.0242,-0.0243,-0.0253,-0.0241,-0.0323,-0.0322,-0.0321,-0.0244,-0.0236,-0.0229,0,0,0,0,0,0,0.0101,0.0059,0.004,0.0031,0.0001,-0.0052,-0.0059,-0.0086,-0.0117,-0.0121,-0.0172,-0.0184,-0.02,-0.0232,-0.0232,-0.0257,-0.0287,-0.0289,-0.0225,-0.0218,-0.0212,-0.0193,-0.0273,0,0,0,0,0,0.0111,0.0104,0.0059,0.0053,0.0042,-0.0006,-0.0024,-0.005,-0.0086,-0.0101,-0.0138,-0.0177,-0.0205,-0.022,-0.0252,-0.0263,-0.0299,-0.0264,-0.0257,-0.0252,-0.0244,-0.0287,-0.0283,-0.0318,-0.0318,-0.0318,0,0,0.0124,0.01,0.0095,0.0062,0.0034,0.0032,-0.0018,-0.0036,-0.0038,-0.0104,-0.0115,-0.0157,-0.0204,-0.0218,-0.0228,-0.0242,-0.026,-0.0251,-0.0246,-0.0241,-0.0285,-0.0282,-0.0279,-0.0318,-0.0318,-0.0318,0,0,0.0155,0.0129,0.0137,0.012,0.0086,0.006,0.006,0.0013,-0.0006,-0.0026,-0.0071,-0.0102,-0.0148,-0.0177,-0.0197,-0.0177,-0.0227,-0.0189,-0.0141,-0.0182,-0.0179,-0.0177,-0.0211,-0.0213,-0.0184,-0.0184,-0.0184,0,0.0173,0.0178,0.0136,0.0143,0.0139,0.0081,0.0098,0.0069,0.0021,0.0013,-0.0017,-0.0085,-0.0127,-0.0141,-0.0137,-0.0162,-0.0193,-0.0162,-0.0173,-0.0172,-0.0171,-0.0207,-0.021,-0.018,-0.018,-0.0181,-0.0181,0,0.0213,0.0217,0.0223,0.0216,0.0207,0.021,0.0173,0.0159,0.0126,0.0094,0.0065,-0.0,-0.0038,-0.0059,-0.0093,-0.0104,-0.013,-0.016,-0.0187,-0.0162,-0.0202,-0.0207,-0.0174,-0.0176,-0.0177,-0.0178,0,0,0.0253,0.0253,0.0255,0.0274,0.0249,0.0251,0.0251,0.0237,0.0244,0.0182,0.0182,0.0117,0.0072,0.0046,-0.0006,-0.0046,-0.0072,-0.0095,-0.0099,-0.012,-0.0159,-0.0178,-0.0185,-0.0105,-0.0106,-0.0106,-0.0185,0,0.0299,0.034,0.0323,0.0368,0.039,0.0351,0.036,0.0339,0.0305,0.0288,0.0211,0.0187,0.0116,0.0099,0.0048,-0.004,-0.0082,-0.0048,-0.0187,-0.0191,-0.0204,-0.019,-0.016,-0.0229,-0.019,-0.0191,-0.0192,0,0.0349,0.0371,0.0424,0.0456,0.0463,0.0475,0.0487,0.0486,0.0443,0.0414,0.0365,0.0305,0.0242,0.0173,0.0034,0.0059,-0.0039,-0.0116,-0.0122,-0.0171,-0.0218,-0.025,-0.0239,-0.02,-0.02,-0.0199,-0.0198,0,0.041,0.0448,0.0497,0.0506,0.0524,0.054,0.0543,0.0522,0.0544,0.0491,0.05,0.0398,0.036,0.0223,0.0063,0.0049,-0.0094,-0.0137,-0.0246,-0.0249,-0.0267,-0.027,-0.0235,-0.0235,-0.0234,-0.0234,-0.0234,0,0.0471,0.0511,0.0529,0.0555,0.0622,0.0604,0.0661,0.0642,0.0641,0.068,0.0569,0.0579,0.0371,0.0267,0.0101,-0.0079,-0.0068,-0.0233,-0.027,-0.0237,-0.0236,-0.0249,-0.0249,-0.0237,-0.0236,-0.0236,-0.0235,0,0.0531,0.0538,0.0601,0.0633,0.0652,0.0695,0.0752,0.0794,0.077,0.0817,0.0812,0.0719,0.0578,0.037,0.0148,-0.0013,-0.0195,-0.0263,-0.0207,-0.0236,-0.0334,-0.0329,-0.0395,-0.0396,-0.0397,-0.0398,-0.0399,0,0.0564,0.0602,0.0666,0.0712,0.0728,0.0792,0.0844,0.0853,0.091,0.0913,0.0952,0.0838,0.0782,0.0449,0.0141,-0.0148,-0.019,-0.0319,-0.0348,-0.032,-0.035,-0.0343,-0.0337,-0.034,-0.034,-0.0341,-0.0341,0,0.0633,0.0649,0.0702,0.0801,0.0865,0.0952,0.1026,0.1097,0.1114,0.1154,0.1185,0.114,0.0828,0.0543,0.0138,-0.0066,-0.0274,-0.0332,-0.0318,-0.03,-0.0274,-0.0301,-0.0296,-0.0342,-0.0342,-0.0342,-0.0342,-0.0342,0.0684,0.0734,0.0804,0.0902,0.0982,0.1092,0.1179,0.1266,0.1368,0.1431,0.1374,0.1311,0.0974,0.0471,0.0106,-0.0286,-0.027,-0.0406,-0.0404,-0.0401,-0.0376,-0.0353,-0.0432,-0.0432,-0.0432,-0.0433,-0.0433,0,0.0751,0.0809,0.0903,0.1016,0.1118,0.1149,0.1293,0.1379,0.1507,0.1555,0.1575,0.1268,0.0938,0.0543,-0.0029,-0.0368,-0.04,-0.0482,-0.044,-0.0435,-0.0432,-0.0408,-0.0473,-0.0474,-0.0475,-0.0476,0,0,0.0784,0.0886,0.0935,0.1111,0.1195,0.134,0.1428,0.1546,0.1617,0.1665,0.1632,0.1557,0.1075,0.0663,0.0194,-0.0139,-0.0214,-0.0214,-0.0144,-0.0034,-0.0027,-0.035,-0.0303,0,0,0,0,0]}],[{"header":{"parameterUnit":"m.s-1","parameterCategory":2,"la1":30.2991,"la2":30.254,"lo1":-89.0895,"lo2":-89.0444,"dy":0.0017,"dx":0.0017,"nx":28,"ny":28,"refTime":"2025-12-02T03:00:00:Z","depth":"4","parameterNumber":2,"parameterNumberName":"U-component_of_CURRENTS"},"data":[0,0,0,0,0,0,0,0,0,0,0,0,0,0,0,0,0,0,0,0,0,0,0,0,0,0,0,0,0,0,0,0,0,0,0,0,0,0,0,0,0,0,0,0,0,0,0,0,0,0,0,0,0,0,0,0,0,0,0.1926,0.1927,0,0.2031,0.2032,0.2032,0.2104,0.2105,0.2106,0.2107,0.2204,0.2206,0.2208,0,0,0,0,0,0,0,0,0,0,0,0,0,0.1757,0.176,0.1926,0.1927,0.1929,0.203,0.2032,0.2033,0.2104,0.2105,0.2106,0.2107,0.2204,0.2206,0.2208,0,0,0,0,0,0,0,0,0,0,0,0,0,0.184,0.1761,0.1925,0.1979,0.1986,0.203,0.2032,0.2033,0.2104,0.2105,0.2106,0.2108,0.2203,0.2205,0.2208,0.2199,0,0,0.2216,0.2218,0,0,0,0,0,0,0,0,0.1835,0.1845,0.197,0.1976,0.1983,0.2059,0.2008,0.209,0.2103,0.2055,0.2107,0.2108,0.2156,0.2163,0.2175,0.2204,0.2208,0.2217,0.2218,0.2219,0.222,0,0,0,0,0,0,0,0.1829,0.1841,0.1964,0.1972,0.1979,0.1988,0.2001,0.2024,0.2094,0.2059,0.2066,0.2083,0.2159,0.2172,0.2178,0.221,0.2217,0.2219,0.2221,0.2222,0.2364,0.2366,0,0,0,0,0,0,0.1824,0.1836,0.196,0.1967,0.1914,0.1991,0.2005,0.203,0.2095,0.2107,0.2081,0.2086,0.2167,0.2174,0.2181,0.2287,0.2219,0.2222,0.2223,0.2362,0.2364,0.2367,0,0,0,0,0,0,0.182,0.1834,0.1956,0.1906,0.1923,0.1993,0.202,0.2032,0.2088,0.2112,0.2124,0.2132,0.2168,0.2178,0.2243,0.2287,0.2223,0.2226,0.2359,0.2363,0.2366,0.2427,0,0,0,0,0,0,0.1815,0.1832,0.1868,0.1906,0.1926,0.2009,0.202,0.2033,0.2096,0.2103,0.2158,0.2166,0.217,0.2239,0.2246,0.229,0.2228,0.2357,0.2361,0.2365,0.2422,0.2432,0.244,0,0,0,0,0,0.1809,0.1847,0.1869,0.1885,0.1966,0.2011,0.2022,0.2072,0.2097,0.2127,0.2171,0.2166,0.227,0.2243,0.2251,0.2296,0.2355,0.236,0.2364,0.2418,0.243,0.244,0,0,0,0,0,0,0.1795,0.1859,0.1884,0.1943,0.1987,0.2025,0.2069,0.2095,0.2153,0.2176,0.2191,0.2203,0.2277,0.2279,0.225,0.235,0.2313,0.2319,0.2351,0.2362,0.2371,0.237,0.223,0,0,0,0,0,0.1807,0.1858,0.1906,0.1958,0.1985,0.2033,0.2067,0.21,0.2146,0.2175,0.2213,0.2256,0.2295,0.2324,0.2355,0.2408,0.2411,0.2444,0.2453,0.246,0.2466,0.2509,0.2522,0.2383,0.2383,0.2383,0,0,0.1819,0.1861,0.1893,0.196,0.2003,0.2044,0.2058,0.2123,0.2167,0.2175,0.226,0.2291,0.2317,0.238,0.2413,0.2393,0.2504,0.2466,0.2472,0.2474,0.2515,0.2529,0.2541,0.2386,0.2385,0.2385,0,0,0.1844,0.1905,0.1946,0.1987,0.2058,0.2086,0.2112,0.2174,0.2219,0.2289,0.2312,0.2372,0.2431,0.2459,0.2477,0.2554,0.2551,0.2573,0.2619,0.2661,0.2673,0.2683,0.271,0.2722,0.2577,0.2577,0.2577,0,0.1858,0.1916,0.1965,0.2008,0.2052,0.2107,0.2152,0.2198,0.2276,0.2318,0.233,0.2442,0.2465,0.2537,0.2568,0.2575,0.2595,0.2572,0.2672,0.2682,0.2691,0.2716,0.2728,0.2581,0.258,0.258,0.258,0,0.1894,0.1957,0.1988,0.2062,0.211,0.2166,0.2226,0.2289,0.2349,0.2389,0.2491,0.2529,0.2594,0.2614,0.2617,0.2702,0.2694,0.2677,0.2639,0.2709,0.2731,0.2743,0.2586,0.2584,0.2583,0.2583,0,0,0.188,0.1992,0.2007,0.2051,0.2149,0.2185,0.2272,0.2354,0.2416,0.2496,0.2575,0.2651,0.2684,0.2707,0.2727,0.2766,0.2849,0.2758,0.2759,0.2776,0.2945,0.2777,0.2773,0.2856,0.2858,0.286,0.2936,0,0.1899,0.1979,0.2037,0.2123,0.2169,0.2252,0.232,0.2403,0.2481,0.2567,0.2632,0.2712,0.2715,0.2761,0.2805,0.2843,0.2883,0.283,0.2883,0.2884,0.2719,0.2782,0.2867,0.2944,0.2947,0.2949,0.295,0,0.1905,0.1963,0.2047,0.2157,0.2187,0.2247,0.2372,0.2441,0.2564,0.2628,0.2724,0.2776,0.2872,0.2851,0.2956,0.2928,0.2948,0.2963,0.2965,0.2792,0.2737,0.2861,0.2971,0.2969,0.2968,0.2966,0.2965,0,0.1848,0.1968,0.2038,0.2077,0.2204,0.2268,0.2343,0.2466,0.2545,0.2677,0.2752,0.2854,0.2932,0.2978,0.3032,0.3008,0.3125,0.3087,0.2952,0.2941,0.3041,0.303,0.3151,0.3151,0.3151,0.3151,0.315,0,0.1825,0.1886,0.2023,0.2058,0.2148,0.2246,0.2352,0.2441,0.2583,0.2663,0.2785,0.2857,0.2973,0.3054,0.3067,0.305,0.3161,0.2968,0.2951,0.3066,0.3057,0.305,0.3037,0.3153,0.3153,0.3152,0.3152,0,0.1747,0.1841,0.1926,0.2071,0.2124,0.2186,0.2361,0.2425,0.2576,0.2688,0.2742,0.2907,0.2991,0.3082,0.3161,0.3086,0.3086,0.3052,0.3185,0.3173,0.2862,0.2852,0.289,0.2884,0.288,0.2876,0.2873,0,0.1711,0.1749,0.1915,0.1966,0.2042,0.2157,0.223,0.2401,0.2469,0.2683,0.2717,0.2878,0.2957,0.2939,0.304,0.3056,0.3024,0.3003,0.2908,0.2856,0.2837,0.2834,0.283,0.2866,0.2865,0.2863,0.2862,0,0.1635,0.1712,0.178,0.1888,0.1979,0.2064,0.2183,0.2226,0.2402,0.2571,0.2622,0.2672,0.2767,0.2817,0.2867,0.2869,0.2999,0.2955,0.2963,0.2874,0.2828,0.2813,0.2814,0.2847,0.2849,0.2851,0.2851,0,0.1581,0.1606,0.1706,0.1785,0.1892,0.1931,0.2013,0.2087,0.2181,0.2407,0.2414,0.2574,0.2724,0.2723,0.2763,0.2762,0.2709,0.2608,0.2633,0.2651,0.254,0.2445,0.2337,0,0,0,0,0,0.1512,0.1526,0.1593,0.1666,0.1764,0.1823,0.1961,0.2042,0.2216,0.2188,0.2295,0.2359,0.2419,0.2512,0.2463,0.2672,0.2731,0.2605,0.2629,0.2761,0.2779,0.2671,0,0,0,0,0,0,0.1463,0.1519,0.1545,0.1549,0.1574,0.1659,0.1737,0.1854,0.1848,0.2031,0.2076,0.2217,0.2316,0.2416,0.2415,0.2444,0.2412,0.2715,0.2709,0.2751,0.2767,0.2782,0.2676,0,0,0,0,0]},{"header":{"parameterUnit":"m.s-1","parameterCategory":2,"la1":30.2991,"la2":30.254,"lo1":-89.0895,"lo2":-89.0444,"dy":0.0017,"dx":0.0017,"nx":28,"ny":28,"refTime":"2025-12-02T03:00:00:Z","depth":"4","parameterNumber":3,"parameterNumberName":"V-component_of_CURRENTS"},"data":[0,0,0,0,0,0,0,0,0,0,0,0,0,0,0,0,0,0,0,0,0,0,0,0,0,0,0,0,0,0,0,0,0,0,0,0,0,0,0,0,0,0,0,0,0,0,0,0,0,0,0,0,0,0,0,0,0,0,0.0108,0.0108,0,0.0033,0.0032,0.0032,-0.0009,-0.0009,-0.0009,-0.001,-0.0082,-0.0084,-0.0086,0,0,0,0,0,0,0,0,0,0,0,0,0,0.0186,0.0185,0.0109,0.0108,0.0106,0.0033,0.0032,0.0031,-0.0009,-0.0009,-0.0009,-0.001,-0.0082,-0.0084,-0.0086,0,0,0,0,0,0,0,0,0,0,0,0,0,0.0136,0.0184,0.0109,0.0077,0.0073,0.0033,0.0032,0.0031,-0.0009,-0.0009,-0.0009,-0.001,-0.0081,-0.0083,-0.0086,-0.0098,0,0,-0.0094,-0.0095,0,0,0,0,0,0,0,0,0.0139,0.0134,0.0083,0.0079,0.0075,0.0021,0.0033,-0.0012,-0.0009,0.0023,-0.001,-0.001,-0.0048,-0.0053,-0.0066,-0.0101,-0.0104,-0.0095,-0.0096,-0.0097,-0.0098,0,0,0,0,0,0,0,0.0143,0.0136,0.0079,0.0082,0.0077,0.0055,0.0049,0.0024,-0.0009,0.002,0.0017,0.0007,-0.005,-0.0063,-0.0068,-0.0105,-0.0094,-0.0097,-0.0098,-0.0099,-0.0155,-0.0154,0,0,0,0,0,0,0.0152,0.014,0.0082,0.0077,0.0106,0.0054,0.0047,0.0039,-0.0009,-0.0017,0.0008,0.0006,-0.0058,-0.0065,-0.0071,-0.0075,-0.0097,-0.01,-0.0101,-0.0155,-0.0155,-0.0154,0,0,0,0,0,0,0.0154,0.0148,0.0085,0.0106,0.0096,0.0053,0.0045,0.0037,0.0025,-0.0019,-0.0027,0.0003,-0.0059,-0.0067,-0.0087,-0.0078,-0.0101,-0.0103,-0.0155,-0.0155,-0.0154,-0.0091,0,0,0,0,0,0,0.0157,0.0149,0.0149,0.0107,0.0095,0.0068,0.0045,0.0036,0.0019,0.0016,-0.0026,-0.0033,-0.006,-0.0083,-0.009,-0.0082,-0.0105,-0.0155,-0.0155,-0.0155,-0.0093,-0.0089,-0.0085,0,0,0,0,0,0.016,0.0159,0.0149,0.0142,0.0096,0.0068,0.0061,0.003,0.0019,0.0017,-0.001,-0.0032,-0.0086,-0.0085,-0.0093,-0.0086,-0.0155,-0.0155,-0.0155,-0.0095,-0.009,-0.0085,0,0,0,0,0,0,0.0189,0.0153,0.0142,0.0129,0.0105,0.0061,0.0054,0.0034,0.0011,0.0009,-0.003,-0.0038,-0.0054,-0.008,-0.0077,-0.0102,-0.0125,-0.0126,-0.0077,-0.0072,-0.0068,-0.0052,-0.0108,0,0,0,0,0,0.0197,0.0189,0.0152,0.0143,0.0134,0.0097,0.0082,0.0062,0.0034,0.0023,-0.0006,-0.0036,-0.0059,-0.0072,-0.0099,-0.0111,-0.0141,-0.0113,-0.0109,-0.0105,-0.0098,-0.0137,-0.0136,-0.0153,-0.0153,-0.0153,0,0,0.0205,0.0185,0.0179,0.015,0.0128,0.0124,0.0088,0.007,0.0069,0.0019,0.0011,-0.0022,-0.006,-0.0073,-0.0083,-0.0093,-0.0116,-0.0104,-0.0101,-0.0096,-0.0137,-0.0135,-0.0134,-0.0153,-0.0153,-0.0153,0,0,0.0222,0.0202,0.0205,0.019,0.0163,0.0143,0.0142,0.0105,0.0091,0.0075,0.0042,0.0016,-0.0022,-0.0046,-0.0063,-0.0051,-0.0092,-0.0061,-0.0025,-0.0063,-0.0062,-0.0061,-0.0094,-0.0097,-0.0058,-0.0058,-0.0058,0,0.0235,0.0234,0.0202,0.0204,0.0201,0.0158,0.0169,0.0147,0.0109,0.0103,0.0082,0.0026,-0.0008,-0.0022,-0.002,-0.0041,-0.0068,-0.0039,-0.0057,-0.0057,-0.0057,-0.0091,-0.0095,-0.0055,-0.0055,-0.0056,-0.0056,0,0.0255,0.0259,0.0261,0.0255,0.0248,0.0247,0.0219,0.0209,0.0186,0.0163,0.0139,0.0087,0.0056,0.0038,0.0012,-0.0003,-0.0024,-0.0046,-0.0066,-0.0051,-0.0089,-0.0094,-0.0051,-0.0052,-0.0053,-0.0053,0,0,0.0274,0.0277,0.0279,0.0297,0.0278,0.0278,0.0278,0.0268,0.0274,0.0225,0.0226,0.0172,0.0139,0.0117,0.0075,0.0039,0.001,0.0001,-0.0002,-0.0024,-0.0071,-0.0078,-0.0085,-0.0016,-0.0017,-0.0017,-0.0095,0,0.0304,0.0333,0.0323,0.0358,0.0375,0.035,0.0358,0.0343,0.0319,0.0306,0.0244,0.0227,0.0171,0.0159,0.0113,0.0038,-0.0001,0.0034,-0.0089,-0.0092,-0.0095,-0.009,-0.0019,-0.0099,-0.0101,-0.0102,-0.0102,0,0.0331,0.035,0.0392,0.0425,0.043,0.0443,0.0458,0.0457,0.0425,0.0405,0.0366,0.0319,0.0264,0.0211,0.0089,0.0114,0.003,-0.0037,-0.0042,-0.0073,-0.0109,-0.012,-0.0112,-0.0111,-0.0111,-0.011,-0.0109,0,0.037,0.0403,0.0445,0.0453,0.0474,0.0493,0.0501,0.0487,0.0506,0.0467,0.0474,0.0389,0.0357,0.024,0.0105,0.0097,-0.0036,-0.0066,-0.0153,-0.0155,-0.0153,-0.0153,-0.0154,-0.0154,-0.0154,-0.0154,-0.0154,0,0.0404,0.044,0.0469,0.049,0.055,0.0542,0.0594,0.0583,0.0586,0.0615,0.0531,0.0528,0.0363,0.027,0.0131,-0.0021,-0.0018,-0.0144,-0.0175,-0.0125,-0.0121,-0.0157,-0.0156,-0.0157,-0.0156,-0.0156,-0.0155,0,0.0437,0.0452,0.0507,0.0547,0.057,0.0608,0.0669,0.0703,0.0691,0.0724,0.0721,0.0637,0.0509,0.034,0.0148,0.0028,-0.0127,-0.0184,-0.0108,-0.0134,-0.0229,-0.0224,-0.0287,-0.0288,-0.0289,-0.0289,-0.029,0,0.0454,0.0485,0.0556,0.0599,0.0622,0.0684,0.0732,0.0751,0.0791,0.0791,0.0812,0.0711,0.0629,0.0366,0.0168,-0.0093,-0.0138,-0.0222,-0.0238,-0.0218,-0.0242,-0.0236,-0.023,-0.0291,-0.0291,-0.0291,-0.0291,0,0.0489,0.0515,0.0562,0.0654,0.0718,0.0795,0.0862,0.0904,0.0922,0.0924,0.0893,0.0752,0.0605,0.0379,0.0177,-0.0015,-0.0171,-0.0231,-0.0231,-0.0247,-0.0224,-0.0245,-0.0239,-0.0294,-0.0294,-0.0293,-0.0293,0,0.0519,0.0557,0.0624,0.0706,0.0793,0.0873,0.0907,0.0953,0.0991,0.0983,0.097,0.08,0.0701,0.042,0.0233,0.0044,-0.0015,-0.009,-0.0099,-0.0098,-0.003,0.0029,0.0015,0,0,0,0,0,0.0544,0.0593,0.0672,0.0761,0.0848,0.0902,0.0983,0.1008,0.1032,0.1023,0.0999,0.0859,0.058,0.0462,0.0273,0.02,-0.0058,-0.0031,-0.0151,-0.0308,-0.0305,-0.0258,0,0,0,0,0,0,0.0559,0.0635,0.0674,0.0793,0.0862,0.0963,0.1016,0.1034,0.1028,0.102,0.0882,0.0805,0.0541,0.0696,0.0271,0.0212,0.0105,-0.0159,-0.0164,-0.031,-0.0307,-0.0305,-0.0256,0,0,0,0,0]}]]